Regional Weather Roundup
Issued by NWS Sioux Falls, SD

Home | Current Version | Previous Version | Text Only | Print | Product List | Glossary Off
Versions: 1 2 3 4 5 6 7 8 9 10 11 12 13 14 15 16 17 18 19 20 21 22 23 24 25 26 27 28 29 30 31 32 33 34 35 36 37 38 39 40 41 42 43 44 45 46 47 48 49 50

000
ASUS43 KFSD 271002
RWRFSD

WEATHER ROUNDUP FOR SE SOUTH DAKOTA/SW MINNESOTA/NW IOWA
NATIONAL WEATHER SERVICE SIOUX FALLS SD
400 AM CST THU NOV 27 2014

NOTE: "FAIR" INDICATES FEW OR NO CLOUDS BELOW 12,000 FEET WITH NO
SIGNIFICANT WEATHER AND OR OBSTRUCTIONS TO VISIBILITY.


SDZ038>040-050-052>070-271100-
SOUTHEAST SOUTH DAKOTA

CITY           SKY/WX    TMP DP  RH WIND       PRES   REMARKS
CHAMBERLAIN    NOT AVBL
HURON          PTCLDY    -5 -10  79 CALM      30.52F
MADISON        FAIR      -6 -11  77 N9        30.47S WCI -22
MITCHELL       PTCLDY     2  -2  83 NE5       30.52F WCI  -8
SIOUX FALLS    PTCLDY    -2  -8  76 W3        30.50R
WINNER         CLOUDY    17   9  70 SE14      30.38F WCI   3
YANKTON        CLOUDY    10   3  72 N6        30.52S WCI   1
$$

MNZ071-072-080-081-089-090-097-098-271100-
SOUTHWEST MINNESOTA

CITY           SKY/WX    TMP DP  RH WIND       PRES   REMARKS
FAIRMONT       PTCLDY    -4  -9  77 NW15      30.44S WCI -25
JACKSON        MOCLDY    -4  -9  77 NW12      30.45S WCI -22
LUVERNE        PTCLDY    -2  -9  71 NW3       30.49S
MARSHALL       FAIR      -9 -15  77 NW9       30.50S WCI -27
MONTEVIDEO     MOCLDY    -8 -11  84 N8        30.54S WCI -23
PIPESTONE      PTCLDY    -4  -9  77 N3        30.45S
REDWOOD FALLS  PTCLDY    -5  -9  83 NW9       30.51S WCI -22
TRACY          PTCLDY    -6 -10  81 NW9       30.50S WCI -23
WINDOM         MOCLDY    -6  -9  84 NW12      30.46S WCI -24
WORTHINGTON    MOCLDY    -6 -11  77 NW9       30.45F WCI -22
$$

IAZ001>003-012>014-020>022-031-032-NEZ013-014-SDZ071-271100-
NORTHWEST IOWA

CITY           SKY/WX    TMP DP  RH WIND       PRES   REMARKS
DENISON        CLOUDY     9   1  72 NW9       30.47S WCI  -5
ESTHERVILLE    PTCLDY    -6 -10  83 NW13      30.45S WCI -25
SIOUX CITY     CLOUDY    13   3  64 N7        30.52S WCI   3
SPENCER        PTCLDY   N/A N/A N/A NW12      30.48R
$$

ABBREVIATIONS USED IN REMARKS
   TC - TEMPERATURE IN CELSIUS
  WCI - WIND CHILL INDEX
   HX - HEAT INDEX
  VSB - VISIBILITY



USA.gov is the U.S. government's official web portal to all federal, state and local government web resources and services.